Погода в Девице

Россия / Липецкая область     51°59′26″N   39°47′48″E
темп.,
°C
ветер,
м/с
пор.,
м/с
влажн.,
%
обл.,
%
осадки,
мм/ч
давл.,
гПа
погр.,
м
6 мая, чт
чт600:00+8ю411799 0.0 1014211
03:00+8ю4127874 0.0 1014224
06:00+9ю51274100 0.0 1014308
09:00+13ю61159100 0.0 1014626
12:00+16ю81247100 0.0 10131738
15:00+17ююз71148100 0.0 10121820
18:00+16ю61056100 0.0 10111041
21:00+11ю4107681 0.0 1011194
7 мая, пт
пт700:00+10зсз3784100 0.0 1012180
03:00+9зсз3794100 1.6 1013606
06:00+8зсз249477 2.6 1015234
09:00+12сз346818 2.6 1016994
12:00+15сз33403 0.0 10171743
15:00+16зсз12331 0.0 10161934
18:00+15ссв0139100 0.0 10161277
21:00+10юв225864 0.0 101726
8 мая, сб
сб800:00+9юв3868100 0.0 1016130
03:00+9юв51372100 0.0 1014309
06:00+10ююв61486100 0.0 1012525
09:00+13ю61281100 0.6 1011721
12:00+14ююз61271100 0.0 1010911
15:00+15ю81370100 0.4 10091083
18:00+12ююз81794100 4.1 10081105
21:00+9зсз51096100 8.8 1011607
9 мая, вс
вс900:00+8сз4892100 3.1 1012515
03:00+6сз3891100 4.0 1014565
06:00+6сз3890100 0.1 1016569
09:00+8с5774100 0.1 1016848
12:00+9с6869100 0.3 10171184
15:00+8с6979100 1.5 10181043
18:00+8с6983100 0.6 1020883
21:00+6с7138493 0.8 1020771
10 мая, пн
пн1000:00+6ссв7158385 0.0 1020807
03:00+6ссв71685100 0.0 1021780
06:00+6ссв81683100 0.0 1022848
09:00+7ссв91782100 0.0 1023734
12:00+9ссв81579100 0.1 1023838
15:00+8ссв71486100 0.6 1024607
18:00+9св61387100 0.0 1024501
21:00+9ссв61389100 0.1 1025401